User: anonymous   Login
Location: Ariel
(45.9570°N, 122.5700°W)
Time: 01:43:06
(UTC-07:00)
Language:

Courier 1B - Orbit

View from above orbital plane
View from above orbital plane
View from above satellite
View from above satellite

Ground track
Ground track

The orbit data is extracted from the following two-line orbital elements,

1    58U 60013A   19198.82318850 +.00000103 +00000-0 +25079-4 0  9997
2    58 028.3294 357.3648 0164932 170.5811 189.7881 13.46317918893350
Epoch (UTC): 17 July 2019 19:45:23
Eccentricity: 0.0164932
inclination: 28.3294°
perigee height: 963 km
apogee height: 1209 km
right ascension of ascending node: 357.3648°
argument of perigee: 170.5811°
revolutions per day: 13.46317918
mean anomaly at epoch: 189.7881°
orbit number at epoch: 89335

The dashed part of the orbit path shows where the satellite is in the earth's shadow,  

DLR